�������l�o���
Date,Time,MP-1(��Sv/h),MP-2(��Sv/h),MP-3(��Sv/h),MP-4(��Sv/h),MP-5(��Sv/h),MP-6(��Sv/h),MP-7(��Sv/h),MP-8(��Sv/h),����,����(m/s),���J
2021/10/18,00:00,0.563,0.841,0.537,1.030,0.720,0.350,0.611,0.572,�k��,6.7,��
2021/10/18,00:10,0.563,0.839,0.536,1.029,0.718,0.350,0.608,0.572,�k�k��,6.8,��
2021/10/18,00:20,0.563,0.843,0.538,1.029,0.720,0.349,0.609,0.570,�k�k��,7.4,��
2021/10/18,00:30,0.563,0.842,0.537,1.029,0.719,0.351,0.609,0.571,�k�k��,7.2,��
2021/10/18,00:40,0.562,0.842,0.536,1.029,0.720,0.349,0.609,0.571,�k�k��,5.9,��
2021/10/18,00:50,0.564,0.841,0.537,1.030,0.721,0.350,0.608,0.572,�k�k��,7.1,��
2021/10/18,01:00,0.564,0.839,0.535,1.030,0.720,0.349,0.608,0.571,�k�k��,7.8,��
2021/10/18,01:10,0.565,0.842,0.537,1.030,0.721,0.349,0.610,0.571,�k��,7.0,��
2021/10/18,01:20,0.562,0.841,0.537,1.030,0.720,0.350,0.608,0.570,�k�k��,7.5,��
2021/10/18,01:30,0.563,0.841,0.538,1.032,0.720,0.350,0.609,0.572,�k�k��,7.3,��
2021/10/18,01:40,0.564,0.841,0.538,1.028,0.721,0.349,0.609,0.572,�k�k��,7.5,��
2021/10/18,01:50,0.562,0.840,0.536,1.027,0.722,0.351,0.609,0.573,�k�k��,6.2,��
2021/10/18,02:00,0.563,0.841,0.536,1.029,0.721,0.350,0.609,0.570,�k��,6.7,��
2021/10/18,02:10,0.562,0.840,0.538,1.030,0.719,0.349,0.610,0.572,�k��,6.8,��
2021/10/18,02:20,0.562,0.841,0.537,1.030,0.720,0.351,0.609,0.572,�k��,6.0,��
2021/10/18,02:30,0.562,0.841,0.536,1.029,0.721,0.349,0.610,0.570,�k�k��,6.1,��
2021/10/18,02:40,0.563,0.842,0.536,1.031,0.720,0.349,0.608,0.571,�k��,6.3,��
2021/10/18,02:50,0.562,0.843,0.537,1.030,0.718,0.349,0.607,0.571,�k��,6.6,��
2021/10/18,03:00,0.564,0.842,0.538,1.030,0.722,0.350,0.608,0.571,�k��,6.4,��
2021/10/18,03:10,0.563,0.840,0.535,1.032,0.720,0.349,0.608,0.572,�k��,5.7,��
2021/10/18,03:20,0.562,0.841,0.537,1.031,0.719,0.349,0.608,0.571,�k��,6.0,��
2021/10/18,03:30,0.563,0.842,0.536,1.030,0.720,0.350,0.610,0.571,�k��,5.7,��
2021/10/18,03:40,0.563,0.841,0.536,1.031,0.721,0.351,0.609,0.572,�k��,6.2,��
2021/10/18,03:50,0.563,0.841,0.536,1.032,0.722,0.351,0.609,0.572,�k�k��,5.9,��
2021/10/18,04:00,0.563,0.840,0.538,1.031,0.721,0.351,0.609,0.571,�k��,5.3,��
2021/10/18,04:10,0.563,0.840,0.537,1.033,0.721,0.351,0.611,0.572,�k��,4.9,��
2021/10/18,04:20,0.563,0.842,0.536,1.030,0.718,0.352,0.607,0.571,�k�k��,4.6,��
2021/10/18,04:30,0.564,0.842,0.536,1.032,0.719,0.351,0.609,0.573,�k�k��,4.8,��
2021/10/18,04:40,0.563,0.842,0.536,1.031,0.720,0.350,0.608,0.572,�k��,5.3,��
2021/10/18,04:50,0.562,0.842,0.538,1.032,0.721,0.351,0.606,0.572,�k�k��,5.1,��
2021/10/18,05:00,0.564,0.842,0.537,1.033,0.720,0.350,0.609,0.574,�k�k��,5.1,��
2021/10/18,05:10,0.562,0.842,0.536,1.035,0.722,0.352,0.608,0.571,�k��,5.2,��
2021/10/18,05:20,0.564,0.839,0.537,1.033,0.722,0.350,0.607,0.573,�k��,5.4,��
2021/10/18,05:30,0.563,0.841,0.537,1.032,0.721,0.351,0.608,0.572,�k��,5.8,��
2021/10/18,05:40,0.563,0.838,0.536,1.031,0.722,0.350,0.609,0.572,�k��,5.7,��
2021/10/18,05:50,0.561,0.844,0.537,1.035,0.720,0.351,0.608,0.572,�k��,5.6,��
2021/10/18,06:00,0.564,0.841,0.535,1.032,0.722,0.350,0.608,0.573,�k��,5.6,��
2021/10/18,06:10,0.562,0.841,0.535,1.034,0.720,0.349,0.607,0.570,�k��,5.5,��
2021/10/18,06:20,0.564,0.841,0.536,1.033,0.719,0.349,0.608,0.571,�k��,4.7,��
2021/10/18,06:30,0.562,0.841,0.538,1.033,0.722,0.351,0.607,0.572,�k��,5.6,��
2021/10/18,06:40,0.561,0.844,0.537,1.033,0.723,0.350,0.608,0.573,�k��,5.1,��
2021/10/18,06:50,0.562,0.845,0.537,1.033,0.721,0.351,0.609,0.573,�k��,4.4,��
2021/10/18,07:00,0.564,0.844,0.537,1.035,0.723,0.350,0.609,0.572,�k��,4.6,��
2021/10/18,07:10,0.561,0.843,0.537,1.032,0.720,0.350,0.608,0.570,�k��,4.8,��
2021/10/18,07:20,0.562,0.845,0.538,1.033,0.723,0.351,0.609,0.572,�k��,4.4,��
2021/10/18,07:30,0.564,0.844,0.537,1.034,0.720,0.352,0.610,0.571,�k��,3.8,��
2021/10/18,07:40,0.566,0.844,0.537,1.035,0.722,0.350,0.609,0.571,�k��,2.5,��
2021/10/18,07:50,0.564,0.845,0.539,1.035,0.720,0.351,0.610,0.572,�k��,2.5,��
2021/10/18,08:00,0.564,0.843,0.540,1.033,0.723,0.349,0.611,0.573,�k��,2.6,��
2021/10/18,08:10,0.565,0.846,0.539,1.033,0.722,0.351,0.608,0.573,���k��,3.1,��
2021/10/18,08:20,0.565,0.842,0.537,1.036,0.723,0.351,0.612,0.571,���k��,3.5,��
2021/10/18,08:30,0.566,0.843,0.538,1.033,0.724,0.349,0.609,0.573,���k��,3.1,��
2021/10/18,08:40,0.565,0.842,0.539,1.035,0.722,0.351,0.608,0.572,���k��,2.8,��
2021/10/18,08:50,0.567,0.844,0.537,1.036,0.723,0.350,0.610,0.573,�k,2.3,��
2021/10/18,09:00,0.568,0.842,0.540,1.034,0.723,0.350,0.608,0.573,�k�k��,3.7,��
2021/10/18,09:10,0.567,0.845,0.539,1.033,0.726,0.352,0.608,0.573,�k�k��,2.3,��
2021/10/18,09:20,0.567,0.842,0.540,1.035,0.726,0.352,0.608,0.573,�k�k��,2.8,��
2021/10/18,09:30,0.567,0.843,0.540,1.036,0.724,0.352,0.609,0.574,�k�k��,2.6,��
2021/10/18,09:40,0.566,0.845,0.542,1.035,0.727,0.352,0.609,0.573,�k�k��,3.7,��
2021/10/18,09:50,0.565,0.846,0.540,1.036,0.725,0.351,0.608,0.573,�k,3.4,��
2021/10/18,10:00,0.565,0.845,0.541,1.033,0.726,0.351,0.608,0.573,�k�k��,2.9,��
2021/10/18,10:10,0.565,0.845,0.539,1.036,0.723,0.350,0.609,0.573,�k�k��,2.8,��
2021/10/18,10:20,0.566,0.845,0.542,1.037,0.724,0.351,0.606,0.572,�k��,2.8,��
2021/10/18,10:30,0.565,0.846,0.540,1.036,0.725,0.350,0.608,0.571,�k�k��,3.2,��
2021/10/18,10:40,0.565,0.847,0.540,1.038,0.724,0.351,0.608,0.572,�k��,3.0,��
2021/10/18,10:50,0.565,0.846,0.538,1.036,0.726,0.350,0.609,0.572,�k��,4.1,��
2021/10/18,11:00,0.567,0.845,0.539,1.035,0.725,0.351,0.607,0.573,�k�k��,3.0,��
2021/10/18,11:10,0.570,0.845,0.540,1.036,0.726,0.350,0.607,0.572,�k��,3.2,��
2021/10/18,11:20,0.569,0.848,0.540,1.038,0.727,0.349,0.607,0.575,�k�k��,3.2,��
2021/10/18,11:30,0.568,0.852,0.540,1.036,0.726,0.350,0.607,0.574,�k�k��,3.5,��
2021/10/18,11:40,0.571,0.849,0.540,1.038,0.725,0.349,0.609,0.574,�k�k��,2.8,��
2021/10/18,11:50,0.569,0.851,0.539,1.038,0.720,0.351,0.609,0.575,�k��,3.5,��
2021/10/18,12:00,0.570,0.850,0.542,1.037,0.729,0.351,0.608,0.575,�k��,3.3,��
2021/10/18,12:10,0.568,0.852,0.541,1.037,0.729,0.351,0.609,0.575,�k�k��,2.6,��
2021/10/18,12:20,0.570,0.853,0.541,1.035,0.728,0.354,0.610,0.575,���k��,3.8,��
2021/10/18,12:30,0.570,0.850,0.541,1.039,0.729,0.353,0.609,0.573,���k��,3.9,��
2021/10/18,12:40,0.567,0.854,0.541,1.038,0.729,0.354,0.609,0.572,�k��,3.7,��
2021/10/18,12:50,0.569,0.851,0.544,1.038,0.729,0.352,0.609,0.571,�k��,3.7,��
2021/10/18,13:00,0.570,0.854,0.542,1.037,0.728,0.352,0.611,0.571,�k��,4.3,��
2021/10/18,13:10,0.569,0.852,0.542,1.038,0.730,0.351,0.609,0.574,���k��,3.3,��
2021/10/18,13:20,0.571,0.850,0.541,1.037,0.730,0.351,0.610,0.573,�k��,3.7,��
2021/10/18,13:30,0.571,0.851,0.540,1.040,0.730,0.352,0.609,0.573,�k��,3.7,��
2021/10/18,13:40,0.571,0.852,0.544,1.038,0.731,0.351,0.609,0.575,�k��,3.6,��
2021/10/18,13:50,0.571,0.852,0.542,1.039,0.733,0.351,0.610,0.572,�k��,3.5,��
2021/10/18,14:00,0.569,0.851,0.542,1.039,0.730,0.350,0.611,0.573,�k��,2.8,��
2021/10/18,14:10,0.570,0.852,0.541,1.039,0.732,0.351,0.609,0.572,�k��,2.6,��
2021/10/18,14:20,0.570,0.853,0.541,1.039,0.731,0.350,0.611,0.573,�k��,2.9,��
2021/10/18,14:30,0.569,0.854,0.543,1.037,0.729,0.351,0.610,0.572,�k��,3.3,��
2021/10/18,14:40,0.571,0.853,0.542,1.039,0.731,0.350,0.611,0.572,�k�k��,2.6,��
2021/10/18,14:50,0.570,0.853,0.543,1.042,0.732,0.351,0.610,0.573,�k��,3.2,��
2021/10/18,15:00,0.570,0.854,0.544,1.039,0.731,0.353,0.610,0.574,�k��,3.1,��
2021/10/18,15:10,0.569,0.853,0.543,1.038,0.731,0.353,0.609,0.572,���k��,3.1,��
2021/10/18,15:20,0.570,0.857,0.544,1.041,0.733,0.352,0.610,0.573,�k��,3.0,��
2021/10/18,15:30,0.566,0.854,0.542,1.041,0.733,0.355,0.610,0.573,���k��,3.1,��
2021/10/18,15:40,0.569,0.852,0.542,1.038,0.733,0.353,0.610,0.572,�k��,3.5,��
2021/10/18,15:50,0.570,0.854,0.543,1.040,0.733,0.354,0.610,0.574,�k��,2.8,��
2021/10/18,16:00,0.570,0.858,0.545,1.041,0.731,0.354,0.611,0.574,�k��,2.6,��
2021/10/18,16:10,0.571,0.858,0.546,1.041,0.731,0.355,0.612,0.575,���k��,2.3,��
2021/10/18,16:20,0.570,0.858,0.545,1.039,0.732,0.353,0.611,0.575,�k��,2.0,��
2021/10/18,16:30,0.570,0.859,0.546,1.039,0.732,0.355,0.611,0.578,���k��,1.7,��
2021/10/18,16:40,0.572,0.857,0.545,1.042,0.731,0.353,0.610,0.575,�k��,1.9,��
2021/10/18,16:50,0.573,0.859,0.545,1.039,0.733,0.353,0.611,0.575,�k�k��,1.7,��
2021/10/18,17:00,0.574,0.858,0.546,1.040,0.733,0.353,0.610,0.575,��,1.1,��
2021/10/18,17:10,0.573,0.859,0.545,1.038,0.734,0.353,0.612,0.576,��,1.5,��
2021/10/18,17:20,0.574,0.858,0.546,1.042,0.733,0.352,0.611,0.574,���k��,1.2,��
2021/10/18,17:30,0.572,0.858,0.545,1.039,0.733,0.352,0.612,0.577,���쓌,0.6,��
2021/10/18,17:40,0.572,0.858,0.545,1.039,0.735,0.353,0.611,0.577,���k��,1.2,��
2021/10/18,17:50,0.572,0.858,0.545,1.040,0.735,0.352,0.612,0.577,���k��,1.5,��
2021/10/18,18:00,0.572,0.859,0.546,1.040,0.733,0.353,0.612,0.575,�쐼,0.6,��
2021/10/18,18:10,0.574,0.860,0.545,1.041,0.734,0.352,0.612,0.575,�쐼,1.2,��
2021/10/18,18:20,0.571,0.858,0.546,1.042,0.733,0.353,0.611,0.576,�쐼,1.7,��
2021/10/18,18:30,0.573,0.859,0.544,1.041,0.734,0.353,0.611,0.576,���쐼,1.5,��
2021/10/18,18:40,0.573,0.860,0.545,1.040,0.735,0.352,0.612,0.573,�쐼,1.5,��
2021/10/18,18:50,0.572,0.858,0.546,1.042,0.734,0.352,0.612,0.576,�쐼,1.2,��
2021/10/18,19:00,0.573,0.857,0.546,1.040,0.735,0.353,0.612,0.575,�쐼,1.5,��
2021/10/18,19:10,0.573,0.858,0.546,1.040,0.732,0.351,0.611,0.575,�쐼,0.9,��
2021/10/18,19:20,0.575,0.856,0.545,1.040,0.734,0.353,0.612,0.576,���쐼,0.9,��
2021/10/18,19:30,0.572,0.858,0.547,1.041,0.734,0.352,0.611,0.576,�쐼,0.9,��
2021/10/18,19:40,0.572,0.858,0.545,1.040,0.733,0.352,0.611,0.576,��쐼,1.1,��
2021/10/18,19:50,0.573,0.858,0.545,1.042,0.735,0.353,0.613,0.577,�쓌,0.8,��
2021/10/18,20:00,0.575,0.859,0.544,1.042,0.734,0.353,0.613,0.576,���쓌,1.4,��
2021/10/18,20:10,0.575,0.859,0.547,1.042,0.736,0.352,0.612,0.576,�쐼,0.9,��
2021/10/18,20:20,0.572,0.858,0.545,1.043,0.736,0.353,0.612,0.576,���쐼,1.7,��
2021/10/18,20:30,0.572,0.859,0.546,1.041,0.734,0.353,0.613,0.576,���쐼,1.4,��
2021/10/18,20:40,0.575,0.858,0.545,1.041,0.735,0.353,0.611,0.576,�쐼,1.7,��
2021/10/18,20:50,0.573,0.857,0.547,1.041,0.735,0.352,0.610,0.575,���쐼,1.7,��
2021/10/18,21:00,0.572,0.860,0.544,1.040,0.734,0.352,0.612,0.575,���쐼,1.1,��
2021/10/18,21:10,0.573,0.860,0.547,1.042,0.735,0.352,0.614,0.577,�쐼,1.4,��
2021/10/18,21:20,0.574,0.858,0.546,1.042,0.735,0.353,0.612,0.577,�쐼,1.4,��
2021/10/18,21:30,0.572,0.860,0.545,1.043,0.736,0.353,0.612,0.576,�쐼,1.7,��
2021/10/18,21:40,0.574,0.859,0.544,1.043,0.737,0.352,0.613,0.576,�쐼,1.2,��
2021/10/18,21:50,0.573,0.858,0.546,1.043,0.736,0.353,0.613,0.577,�쐼,1.2,��
2021/10/18,22:00,0.573,0.859,0.546,1.040,0.735,0.354,0.612,0.576,�쐼,2.0,��
2021/10/18,22:10,0.573,0.856,0.545,1.042,0.736,0.353,0.612,0.575,�쐼,2.3,��
2021/10/18,22:20,0.574,0.858,0.546,1.040,0.736,0.353,0.613,0.576,�쐼,2.3,��
2021/10/18,22:30,0.572,0.857,0.545,1.042,0.735,0.353,0.612,0.577,��쐼,1.5,��
2021/10/18,22:40,0.574,0.859,0.545,1.041,0.735,0.354,0.611,0.576,��,1.2,��
2021/10/18,22:50,0.574,0.856,0.548,1.039,0.736,0.353,0.611,0.577,��,1.1,��
2021/10/18,23:00,0.574,0.856,0.547,1.042,0.734,0.355,0.612,0.576,�쐼,2.0,��
2021/10/18,23:10,0.575,0.860,0.546,1.040,0.736,0.353,0.611,0.577,�쐼,1.9,��
2021/10/18,23:20,0.573,0.860,0.547,1.042,0.737,0.353,0.612,0.576,�쐼,2.9,��
2021/10/18,23:30,0.575,0.857,0.547,1.041,0.737,0.354,0.612,0.577,��쐼,2.3,��
2021/10/18,23:40,0.574,0.859,0.548,1.044,0.735,0.353,0.610,0.576,��쐼,2.5,��
2021/10/18,23:50,0.574,0.859,0.549,1.042,0.736,0.353,0.610,0.577,��쐼,1.7,��
